[[{"header":{"parameterUnit":"m.s-1","parameterCategory":1,"la1":30.2991,"la2":30.254,"lo1":-89.0895,"lo2":-89.0444,"dy":0.0017,"dx":0.0017,"nx":28,"ny":28,"refTime":"2024-07-01T03:00:00:Z","depth":0,"parameterNumber":2,"parameterNumberName":"U-component_of_WINDS"},"data":[0,0,0,0,0,0,0,0,0,0,0,0,0,0,0,0,0,0,0,0,0,0,0,0,0,0,0,0,0,0,0,0,0,0,0,0,0,0,0,0,0,0,0,0,0,0,0,0,0,0,0,0,0,0,0,0,0,0,-0.6268,-0.6267,0,-0.6162,-0.6161,-0.616,-0.6127,-0.6127,-0.6128,-0.6128,-0.6017,-0.6014,-0.6011,0,0,0,0,0,0,0,0,0,0,0,0,0,-0.6442,-0.6439,-0.6268,-0.6267,-0.6266,-0.6162,-0.6161,-0.6159,-0.6127,-0.6127,-0.6128,-0.6129,-0.6019,-0.6015,-0.601,0,0,0,0,0,0,0,0,0,0,0,0,0,-0.6355,-0.6438,-0.6269,-0.6237,-0.6233,-0.6162,-0.6161,-0.6159,-0.6127,-0.6127,-0.6128,-0.6129,-0.602,-0.6015,-0.601,-0.5962,0,0,-0.5994,-0.5992,0,0,0,0,0,0,0,0,-0.636,-0.6348,-0.6243,-0.6239,-0.6235,-0.6159,-0.6181,-0.6093,-0.6126,-0.6167,-0.6128,-0.6129,-0.6064,-0.6055,-0.6033,-0.5957,-0.5952,-0.5994,-0.599,-0.5988,-0.5987,0,0,0,0,0,0,0,-0.6366,-0.6353,-0.6226,-0.6242,-0.6236,-0.6228,-0.6216,-0.6164,-0.6112,-0.6164,-0.6161,-0.6149,-0.6061,-0.6038,-0.603,-0.5951,-0.5994,-0.5989,-0.5986,-0.5984,-0.583,-0.5829,0,0,0,0,0,0,-0.6377,-0.6358,-0.623,-0.6223,-0.63,-0.6224,-0.6211,-0.6182,-0.6113,-0.6103,-0.6148,-0.6148,-0.6047,-0.6036,-0.6026,-0.5965,-0.5988,-0.5983,-0.598,-0.5831,-0.583,-0.5829,0,0,0,0,0,0,-0.6381,-0.6366,-0.6234,-0.629,-0.6272,-0.622,-0.6188,-0.618,-0.6156,-0.6101,-0.6092,-0.6134,-0.6047,-0.6034,-0.5978,-0.5961,-0.5981,-0.5976,-0.5832,-0.583,-0.5829,-0.5844,0,0,0,0,0,0,-0.6386,-0.6368,-0.6349,-0.629,-0.6269,-0.6188,-0.6187,-0.6177,-0.6148,-0.6146,-0.6085,-0.6076,-0.6046,-0.5986,-0.5973,-0.5954,-0.5972,-0.5833,-0.5831,-0.583,-0.5845,-0.5843,-0.5842,0,0,0,0,0,-0.6393,-0.6357,-0.6348,-0.6333,-0.6245,-0.6187,-0.6176,-0.6143,-0.6147,-0.6127,-0.6092,-0.6078,-0.5966,-0.5981,-0.5966,-0.5945,-0.5834,-0.5832,-0.583,-0.5845,-0.5843,-0.5842,0,0,0,0,0,0,-0.6415,-0.6349,-0.6338,-0.6283,-0.6241,-0.6182,-0.6156,-0.6142,-0.6098,-0.6098,-0.6059,-0.6045,-0.5993,-0.5964,-0.5982,-0.5896,-0.5899,-0.5894,-0.5916,-0.5914,-0.5913,-0.592,-0.5968,0,0,0,0,0,-0.6414,-0.6373,-0.6317,-0.6273,-0.6253,-0.6209,-0.6182,-0.6161,-0.6116,-0.6098,-0.6058,-0.6015,-0.5969,-0.594,-0.5896,-0.5841,-0.5827,-0.5819,-0.5818,-0.5817,-0.5812,-0.5781,-0.5777,-0.5821,-0.5821,-0.5821,0,0,-0.641,-0.6369,-0.6345,-0.6277,-0.6242,-0.62,-0.6194,-0.6149,-0.6118,-0.6091,-0.6036,-0.6006,-0.5955,-0.59,-0.5873,-0.5874,-0.5797,-0.5814,-0.5814,-0.581,-0.5778,-0.5774,-0.577,-0.582,-0.582,-0.582,0,0,-0.6382,-0.6347,-0.6307,-0.6272,-0.622,-0.6191,-0.6182,-0.6125,-0.6104,-0.6049,-0.6028,-0.599,-0.5913,-0.5877,-0.5849,-0.5809,-0.5794,-0.5796,-0.5787,-0.5757,-0.5754,-0.575,-0.5735,-0.573,-0.5792,-0.5792,-0.5792,0,-0.6384,-0.632,-0.6288,-0.6245,-0.6215,-0.619,-0.6148,-0.6116,-0.6052,-0.6032,-0.6034,-0.5937,-0.5901,-0.5837,-0.5827,-0.5806,-0.5793,-0.5801,-0.5757,-0.5753,-0.575,-0.5735,-0.5729,-0.5792,-0.5792,-0.5792,-0.5792,0,-0.6325,-0.6281,-0.6255,-0.6194,-0.6162,-0.612,-0.6081,-0.6052,-0.6034,-0.6004,-0.5949,-0.5905,-0.5851,-0.5834,-0.5816,-0.5768,-0.577,-0.5765,-0.5767,-0.5746,-0.5732,-0.5726,-0.5793,-0.5792,-0.5792,-0.5792,0,0,-0.6306,-0.6229,-0.622,-0.6192,-0.6134,-0.6099,-0.6056,-0.6004,-0.598,-0.5937,-0.5899,-0.5836,-0.5831,-0.5799,-0.5777,-0.575,-0.5721,-0.5748,-0.5747,-0.5744,-0.5664,-0.5668,-0.5662,-0.5712,-0.571,-0.5709,-0.5668,0,-0.627,-0.6193,-0.6163,-0.6099,-0.6058,-0.6034,-0.5997,-0.5957,-0.5929,-0.5889,-0.5858,-0.5813,-0.5811,-0.5792,-0.5765,-0.573,-0.5704,-0.5733,-0.5675,-0.5674,-0.5687,-0.5654,-0.5657,-0.562,-0.5663,-0.5662,-0.5661,0,-0.6217,-0.6174,-0.6107,-0.6053,-0.6035,-0.6002,-0.5952,-0.5915,-0.5869,-0.5851,-0.5816,-0.5795,-0.5749,-0.5756,-0.5692,-0.5712,-0.5687,-0.5667,-0.5664,-0.5656,-0.5665,-0.5644,-0.5608,-0.5602,-0.5652,-0.5652,-0.5653,0,-0.6209,-0.6135,-0.6085,-0.6062,-0.5999,-0.5976,-0.5948,-0.5903,-0.5874,-0.5831,-0.5811,-0.5763,-0.5736,-0.5699,-0.5666,-0.5674,-0.5604,-0.5609,-0.5587,-0.5588,-0.5572,-0.5573,-0.553,-0.5558,-0.5558,-0.5558,-0.5558,0,-0.6171,-0.613,-0.6081,-0.605,-0.6004,-0.597,-0.5925,-0.5896,-0.5856,-0.5819,-0.5796,-0.5762,-0.5721,-0.5681,-0.5655,-0.5605,-0.5593,-0.5576,-0.557,-0.5578,-0.558,-0.5559,-0.5561,-0.5557,-0.5557,-0.5557,-0.5558,0,-0.6154,-0.6119,-0.6063,-0.6008,-0.5993,-0.5962,-0.5914,-0.5884,-0.5855,-0.5809,-0.5796,-0.5751,-0.5703,-0.5666,-0.5604,-0.5586,-0.5533,-0.5527,-0.5549,-0.5545,-0.5525,-0.5527,-0.5466,-0.5456,-0.5492,-0.5492,-0.5492,0,-0.6131,-0.6099,-0.6041,-0.6015,-0.5988,-0.5946,-0.5917,-0.5882,-0.5853,-0.5798,-0.5774,-0.5725,-0.5683,-0.5608,-0.5569,-0.5521,-0.5512,-0.5495,-0.5505,-0.5514,-0.5511,-0.5513,-0.5509,-0.5493,-0.5493,-0.5492,-0.5492,0,-0.6094,-0.6079,-0.6037,-0.599,-0.5955,-0.5916,-0.5876,-0.5856,-0.5815,-0.5783,-0.5734,-0.5702,-0.5639,-0.559,-0.5538,-0.5509,-0.5493,-0.549,-0.5482,-0.5489,-0.5503,-0.5494,-0.5544,-0.5491,-0.5491,-0.5491,-0.5491,-0.5491,-0.6072,-0.6043,-0.5998,-0.5953,-0.592,-0.5883,-0.5852,-0.582,-0.5779,-0.5725,-0.5707,-0.5657,-0.5612,-0.5541,-0.5512,-0.5472,-0.5471,-0.546,-0.5457,-0.5455,-0.5455,-0.5511,-0.5462,-0.5462,-0.5462,-0.5462,-0.5462,0,-0.6034,-0.6004,-0.5962,-0.5908,-0.5872,-0.5862,-0.5818,-0.5789,-0.5745,-0.5704,-0.5665,-0.5608,-0.5561,-0.5519,-0.547,-0.5446,-0.5437,-0.5434,-0.5434,-0.5428,-0.5458,-0.547,-0.5441,-0.5441,-0.5441,-0.5442,-0.5442,-0.5442,-0.6009,-0.5959,-0.5938,-0.5872,-0.5842,-0.5793,-0.5768,-0.5735,-0.5702,-0.5641,-0.5602,-0.5575,-0.5534,-0.5482,-0.5438,-0.5427,-0.5409,-0.5408,-0.5395,-0.5423,-0.5426,-0.5428,-0.5438,-0.5404,-0.5404,-0.5367,-0.5367,-0.5367]},{"header":{"parameterUnit":"m.s-1","parameterCategory":1,"la1":30.2991,"la2":30.254,"lo1":-89.0895,"lo2":-89.0444,"dy":0.0017,"dx":0.0017,"nx":28,"ny":28,"refTime":"2024-07-01T03:00:00:Z","depth":0,"parameterNumber":3,"parameterNumberName":"V-component_of_WINDS"},"data":[0,0,0,0,0,0,0,0,0,0,0,0,0,0,0,0,0,0,0,0,0,0,0,0,0,0,0,0,0,0,0,0,0,0,0,0,0,0,0,0,0,0,0,0,0,0,0,0,0,0,0,0,0,0,0,0,0,0,4.7814,4.7814,0,4.782,4.782,4.782,4.7768,4.7767,4.7765,4.7764,4.7768,4.777,4.7771,0,0,0,0,0,0,0,0,0,0,0,0,0,4.7757,4.7758,4.7814,4.7814,4.7814,4.782,4.782,4.782,4.7768,4.7766,4.7765,4.7763,4.7768,4.777,4.7771,0,0,0,0,0,0,0,0,0,0,0,0,0,4.7774,4.7759,4.7814,4.7789,4.7787,4.782,4.782,4.782,4.7769,4.7766,4.7764,4.7762,4.7767,4.7769,4.7772,4.7828,0,0,4.7778,4.7779,0,0,0,0,0,0,0,0,4.7773,4.7776,4.7793,4.7791,4.7788,4.7791,4.7801,4.7822,4.7769,4.7776,4.7764,4.7761,4.7777,4.7779,4.7784,4.7828,4.7828,4.7778,4.778,4.7781,4.7781,0,0,0,0,0,0,0,4.7772,4.7776,4.7816,4.7793,4.779,4.7777,4.7777,4.7805,4.7788,4.7775,4.7771,4.7773,4.7776,4.7782,4.7784,4.7828,4.7778,4.778,4.7782,4.7782,4.7919,4.7921,0,0,0,0,0,0,4.7774,4.7775,4.7816,4.7816,4.7775,4.778,4.778,4.7792,4.7788,4.7785,4.7774,4.777,4.778,4.7782,4.7784,4.785,4.7781,4.7783,4.7784,4.7917,4.792,4.7922,0,0,0,0,0,0,4.7773,4.7779,4.7816,4.7795,4.7798,4.7783,4.7797,4.7794,4.78,4.7788,4.7784,4.7784,4.7778,4.7781,4.7818,4.785,4.7784,4.7786,4.7914,4.7918,4.7921,4.7983,0,0,0,0,0,0,4.7772,4.7778,4.78,4.7796,4.78,4.785,4.7799,4.7795,4.7804,4.7799,4.7796,4.7793,4.7777,4.7815,4.782,4.7852,4.7787,4.7911,4.7916,4.792,4.7978,4.7988,4.7997,0,0,0,0,0,4.777,4.7817,4.7801,4.7807,4.7826,4.7852,4.7854,4.7834,4.7807,4.7828,4.782,4.7794,4.7845,4.7819,4.7824,4.7857,4.7909,4.7915,4.792,4.7974,4.7986,4.7997,0,0,0,0,0,0,4.7825,4.7816,4.7799,4.7845,4.785,4.7843,4.7869,4.7848,4.7859,4.7854,4.7828,4.7828,4.7869,4.7866,4.7837,4.7912,4.7872,4.7879,4.7912,4.7924,4.7933,4.7933,4.7789,0,0,0,0,0,4.7842,4.7864,4.7855,4.7897,4.79,4.7885,4.7895,4.7879,4.7882,4.7884,4.7878,4.7882,4.7899,4.7911,4.7926,4.7977,4.7976,4.8003,4.8012,4.802,4.8026,4.8053,4.8065,4.7939,4.7939,4.7939,0,0,4.7879,4.7876,4.7891,4.7908,4.7909,4.7932,4.7886,4.7912,4.7929,4.7887,4.7922,4.7918,4.7921,4.7965,4.7985,4.7965,4.806,4.8027,4.8033,4.8035,4.806,4.8072,4.8082,4.7943,4.7942,4.7942,0,0,4.7956,4.7957,4.7992,4.7995,4.7999,4.7988,4.7997,4.7993,4.7989,4.8024,4.7994,4.8013,4.8043,4.8046,4.8052,4.8132,4.8108,4.8137,4.8186,4.8213,4.8223,4.8232,4.8261,4.8272,4.8143,4.8143,4.8143,0,4.8001,4.8035,4.8013,4.8041,4.805,4.8014,4.805,4.8053,4.8061,4.8067,4.8045,4.8082,4.8082,4.8126,4.8146,4.8152,4.8161,4.8137,4.8224,4.8232,4.824,4.8267,4.8278,4.8147,4.8147,4.8146,4.8146,0,4.8089,4.8113,4.8141,4.8151,4.8162,4.8194,4.8177,4.8191,4.8175,4.8166,4.8202,4.82,4.8214,4.8224,4.8207,4.8266,4.8254,4.8228,4.8188,4.8256,4.8281,4.8291,4.8152,4.8151,4.815,4.8149,0,0,4.8202,4.8199,4.821,4.8214,4.8216,4.8233,4.8264,4.8278,4.8291,4.8297,4.8322,4.8349,4.8325,4.8332,4.8315,4.8339,4.8403,4.831,4.831,4.8328,4.8469,4.8488,4.8501,4.8387,4.8389,4.8391,4.8468,0,4.8278,4.833,4.8312,4.8365,4.8387,4.8354,4.838,4.8384,4.8377,4.8394,4.8386,4.8406,4.8373,4.8376,4.8398,4.8391,4.8431,4.8385,4.841,4.8411,4.8411,4.8514,4.8535,4.8608,4.8478,4.848,4.8481,0,4.8374,4.8386,4.8441,4.8439,4.8448,4.8472,4.8484,4.8501,4.8504,4.8498,4.8506,4.8485,4.8514,4.8474,4.8514,4.8483,4.8492,4.849,4.8493,4.8494,4.845,4.8519,4.8631,4.8642,4.8496,4.8495,4.8494,0,4.8451,4.848,4.8517,4.8522,4.852,4.8538,4.8538,4.854,4.855,4.856,4.8567,4.858,4.8588,4.8599,4.8582,4.8555,4.8625,4.8583,4.862,4.8621,4.8636,4.8636,4.8752,4.8642,4.8642,4.8642,4.8642,0,4.8538,4.8573,4.8552,4.8575,4.8613,4.8592,4.8631,4.8627,4.8629,4.865,4.8622,4.8643,4.8619,4.8638,4.8625,4.866,4.8663,4.8659,4.8655,4.8662,4.8662,4.8667,4.8662,4.8645,4.8644,4.8643,4.8643,0,4.863,4.8617,4.8656,4.8652,4.8652,4.868,4.8677,4.8698,4.8689,4.8717,4.8722,4.8708,4.8728,4.8713,4.8732,4.8724,4.8771,4.8759,4.877,4.8767,4.8805,4.8802,4.8929,4.8944,4.8824,4.8825,4.8826,0,4.8687,4.8714,4.8713,4.8726,4.8728,4.8749,4.8759,4.8739,4.8751,4.8757,4.8778,4.8796,4.8809,4.8843,4.8834,4.8849,4.8839,4.8882,4.8841,4.8847,4.884,4.8838,4.8841,4.8891,4.8892,4.8893,4.8894,0,4.879,4.8782,4.8799,4.8813,4.8827,4.8837,4.8845,4.8857,4.8837,4.8852,4.8872,4.8883,4.8903,4.8922,4.8934,4.8933,4.8911,4.8907,4.8917,4.8924,4.8929,4.8927,4.8793,4.8904,4.8903,4.8903,4.8902,4.8902,4.8866,4.8888,4.8892,4.8911,4.8915,4.8924,4.8943,4.8938,4.8955,4.897,4.8957,4.8982,4.8985,4.8999,4.9002,4.9021,4.9003,4.9016,4.902,4.9023,4.9029,4.8926,4.9023,4.9023,4.9022,4.9022,4.9022,0,4.8967,4.8968,4.8986,4.8999,4.9014,4.8992,4.9,4.9014,4.9037,4.9041,4.9055,4.9079,4.9097,4.9091,4.9106,4.9123,4.9113,4.9127,4.9126,4.9127,4.9044,4.9035,4.9135,4.9135,4.9135,4.9135,4.9135,4.9135,4.9022,4.9059,4.9052,4.909,4.909,4.9115,4.9122,4.9129,4.9133,4.9161,4.9176,4.9172,4.9172,4.9188,4.9203,4.92,4.9208,4.9226,4.922,4.9143,4.9132,4.9122,4.9113,4.9228,4.9228,4.9301,4.9302,4.9302]}]]